This is the latest recevied weather packets stored in our database for station/object N3WXO-1. If no packets are shown the sender has not sent any weather packets the latest 10 day(s).
| Time | Temp. | Humidity | Pressure | Rain* | Wind** | Luminosity | Snow |
|---|---|---|---|---|---|---|---|
| 1777224920 | 15.56° C | 63% | 1019.4 hPa | 0 mm | - | 394 W/m² | - |
| 1777224635 | 15.56° C | 63% | 1019.4 hPa | 0 mm | - | 287 W/m² | - |
| 1777224327 | 15.56° C | 60% | 1019.5 hPa | 0 mm | - | 1009 W/m² | - |
| 1777224034 | 15.56° C | 63% | 1019.6 hPa | 0 mm | - | 976 W/m² | - |
| 1777223721 | 15.56° C | 63% | 1019.6 hPa | 0 mm | - | 383 W/m² | - |
| 1777223417 | 15.56° C | 63% | 1019.6 hPa | 0 mm | - | 360 W/m² | - |
| 1777223131 | 15° C | 63% | 1019.7 hPa | 0 mm | - | 933 W/m² | - |
| 1777222826 | 15° C | 66% | 1019.7 hPa | 0 mm | - | 696 W/m² | - |
| 1777222538 | 14.44° C | 68% | 1019.6 hPa | 0 mm | - | 1199 W/m² | - |
| 1777222227 | 13.89° C | 69% | 1019.7 hPa | 0 mm | - | 603 W/m² | - |
| 1777221919 | 13.33° C | 69% | 1019.8 hPa | 0 mm | - | 427 W/m² | - |
| 1777221634 | 13.33° C | 68% | 1019.9 hPa | 0 mm | - | 339 W/m² | - |
| 1777221326 | 13.33° C | 70% | 1019.9 hPa | 0 mm | - | 276 W/m² | - |
| 1777221018 | 12.78° C | 71% | 1019.9 hPa | 0 mm | - | 239 W/m² | - |
| 1777220727 | 12.78° C | 70% | 1019.9 hPa | 0 mm | - | 244 W/m² | - |
| 1777220421 | 12.22° C | 70% | 1020 hPa | 0 mm | - | 269 W/m² | - |
| 1777220131 | 12.22° C | 69% | 1020 hPa | 0 mm | - | 269 W/m² | - |
| 1777219819 | 12.22° C | 74% | 1020.1 hPa | 0 mm | - | 274 W/m² | - |
| 1777219531 | 12.22° C | 69% | 1020.1 hPa | 0 mm | - | 258 W/m² | - |
| 1777219222 | 12.22° C | 70% | 1020.1 hPa | 0 mm | - | 241 W/m² | - |
| 1777218930 | 12.22° C | 71% | 1020.1 hPa | 0 mm | - | 204 W/m² | - |
| 1777218622 | 12.22° C | 71% | 1020.2 hPa | 0 mm | - | 163 W/m² | - |
| 1777218334 | 12.78° C | 70% | 1020.1 hPa | 0 mm | - | 160 W/m² | - |
| 1777218022 | 12.78° C | 70% | 1019.9 hPa | 0 mm | - | 172 W/m² | - |
| 1777217718 | 12.78° C | 70% | 1019.9 hPa | 0 mm | - | 186 W/m² | - |
* Rain latest hour (hover to see other rain measurements)
** Current wind speed in m/s (hover to see current wind gust speed)